Regional Weather Roundup
Issued by NWS Charleston, WV

Home | Current Version | Previous Version | Graphics & Text | Print | Product List | Glossary On
Versions: 1 2 3 4 5 6 7 8 9 10 11 12 13 14 15 16 17 18 19 20 21 22 23 24 25 26 27 28 29 30 31 32 33 34 35 36 37 38 39 40 41 42 43 44 45 46 47 48 49 50
242
ASUS41 KRLX 082210
RWRRLX
West Virginia Regional Weather Roundup
National Weather Service Charleston WV
500 PM EST MON FEB 08 2016

Note: "fair" indicates few or no clouds below 12,000 feet with no
significant weather and/or obstructions to visibility.

WVZ003-082300-
Northern Panhandle of West Virginia

CITY           SKY/WX    TMP DP  RH WIND       PRES   REMARKS
WHEELING       CLOUDY    34  31  88 SW9       29.59R
$$

WVZ009-082300-
Northwest West Virginia

CITY           SKY/WX    TMP DP  RH WIND       PRES   REMARKS
PARKERSBURG    CLOUDY    38  35  89 NW5       29.64S
$$

WVZ006-082300-
Western West Virginia

CITY           SKY/WX    TMP DP  RH WIND       PRES   REMARKS
HUNTINGTON     CLOUDY    37  32  82 SW8       29.66R
$$

WVZ015-082300-
West Central West Virginia

CITY           SKY/WX    TMP DP  RH WIND       PRES   REMARKS
CHARLESTON     SNOW      34  30  85 W23G40    29.65R VSB 1/4
$$

WVZ022-031-082300-
North Central West Virginia

CITY           SKY/WX    TMP DP  RH WIND       PRES   REMARKS
CLARKSBURG     MOCLDY    38  34  85 W9        29.60R
MORGANTOWN     CLOUDY    38  31  76 SW12      29.61R
$$

WVZ025-035-042-045-082300-
Southern West Virginia

CITY           SKY/WX    TMP DP  RH WIND       PRES   REMARKS
BECKLEY        HVY SNOW  33  29  85 W24G40    29.59R VSB 1/4
LOGAN          LGT SNOW  34  32  93 W7        29.64R
BLUEFIELD      HVY SNOW  31  28  89 W14G22    29.59R VSB 1/4
LEWISBURG      CLOUDY    37  34  88 CALM      29.58S
$$

WVZ047-082300-
Northern Mountains of West Virginia

CITY           SKY/WX    TMP DP  RH WIND       PRES   REMARKS
ELKINS           N/A     36  31  82 CALM      29.57F
$$

WVZ052-082300-
Eastern Panhandle of West Virginia

CITY           SKY/WX    TMP DP  RH WIND       PRES   REMARKS
MARTINSBURG    CLOUDY    43  23  45 E3        29.64S
PETERSBURG     CLOUDY    44  29  56 CALM      29.62R
$$




USA.gov is the U.S. government's official web portal to all federal, state and local government web resources and services.